Weather in Bolkhovskoye

Russia / Lipetsk Oblast     52°24′55″N   38°51′40″E
temp.,
°C
wind,
m/s
gust,
m/s
humid.,
%
clouds,
%
prec.,
mm/h
press.,
hPa
HPBL,
m
27 january, thu
thu2700:00−14w119972 0.1 101810
03:00−18wnw11100100 0.1 10199
06:00−18wnw11100100 0.1 10199
09:00−16w119882 0.1 101916
12:00−11ssw119482 0.1 1019105
15:00−10ssw229560 0.1 101878
18:00−16ssw2210097 0.0 101915
21:00−18s3310079 0.0 101833
28 january, fri
fri2800:00−19s3410086 0.0 101751
03:00−18s379977 0.0 101688
06:00−18sse499984 0.0 1014128
09:00−13sse51395100 0.1 1013260
12:00−9sse6129495 0.2 1011317
15:00−7sse61395100 0.7 1009417
18:00−5sse61295100 0.9 1008425
21:00−4s51296100 1.4 1006380
29 january, sat
sat2900:00−3ssw499788 0.5 1006313
03:00−3s489697 0.6 1006204
06:00−3s389798 0.2 1005234
09:00−7s3698100 0.3 100696
12:00−1ssw469572 0.1 1006358
15:00−1sw3595100 0.2 1006489
18:00−3ssw2498100 0.1 100695
21:00−4wsw259866 0.4 100686
30 january, sun
sun3000:00−4w489681 0.2 1007211
03:00−6w5109589 0.4 1008311
06:00−10wsw499691 0.1 1007172
09:00−9ssw51494100 0.1 1005302
12:00−5ssw81690100 0.0 1002673
15:00−4s101994100 0.6 9981001
18:00−4ssw91794100 1.4 996939
21:00−2ssw81593100 1.9 993679
31 january, mon
mon3100:00−2ssw71396100 0.9 992698
03:00−1ssw71290100 1.1 991758
06:00−2s81592100 0.1 989720
09:00−1s81594100 0.8 988809
12:000ssw81396100 1.1 987928
15:00−1sw6119498 1.7 988739
18:00−1wsw8139599 0.4 990695
21:00−4wsw7139496 0.6 994569